Perryton, TX

11:13 PM CDT on August 16, 2017 (GMT -0500)
Perryton Ochiltree County

Weather History for KPYX - July, 2013

Change the Weather History Date:

Sunday, July 14, 2013

  Actual Average Record
Temperature  
Mean Temperature 74 °F -  
Max Temperature 85 °F 92 °F 109 °F (2003)
Min Temperature 62 °F 64 °F 48 °F (1990)
Cooling Degree Days 8    
Growing Degree Days 24 (Base 50)    
Moisture  
Dew Point 55 °F    
Average Humidity 54    
Maximum Humidity 93    
Minimum Humidity 30    
Precipitation  
Precipitation 0.03 in - - ()
Sea Level Pressure  
Sea Level Pressure 30.02 in    
Wind  
Wind Speed 13 mph (SSE)    
Max Wind Speed 31 mph    
Max Gust Speed 40 mph    
Visibility 10 miles    
Events      
Averages and records for this station are not official NWS values.
T = Trace of Precipitation, MM = Missing Value Source: NWS Daily Summary

Daily Weather History Graph

Daily Weather History Graph

Search for Another Location

Airport or City:

Trip Planner

Search our weather history database for the weather conditions in past years. The results will help you decide how hot, cold, wet, or windy it might be!

Date:

Astronomy

Jul. 14, 2013 Rise Set
Actual Time 6:36 AM CDT 9:01 PM CDT
Civil Twilight 6:06 AM CDT 9:30 PM CDT
Nautical Twilight 5:29 AM CDT 10:07 PM CDT
Astronomical Twilight 4:49 AM CDT 10:47 PM CDT
Moon 12:42 PM CDT (7/14) No Moon Set
Length of Visible Light 15h 24m
Length of Day
14h 25m
Waxing Crescent, 35% of the Moon is Illuminated
Jul 14
Waxing Crescent
Jul 15
First Quarter
Jul 22
Full
Jul 29
Last Quarter
Aug 6
New

Hourly Weather History & Observations

Time (CDT) Temp. Heat Index Dew Point Humidity Pressure Visibility Wind Dir Wind Speed Gust Speed Precip Events Conditions
12:15 AM 78.8 °F - 45.1 °F 30% 29.98 in 10.0 mi South 8.1 mph - N/A   Clear
12:35 AM 77.7 °F - 45.1 °F 31% 29.98 in 10.0 mi South 8.1 mph - N/A   Clear
12:55 AM 77.2 °F - 44.8 °F 32% 29.99 in 10.0 mi South 6.9 mph - N/A   Clear
1:15 AM 75.2 °F - 45.1 °F 34% 29.99 in 10.0 mi SE 8.1 mph - N/A   Clear
1:35 AM 78.6 °F - 46.4 °F 32% 29.99 in 10.0 mi SSE 10.4 mph - N/A   Clear
1:55 AM 77.0 °F - 47.1 °F 35% 29.98 in 10.0 mi SSE 10.4 mph - N/A   Clear
2:15 AM 77.4 °F - 47.7 °F 35% 29.98 in 10.0 mi SSE 10.4 mph - N/A   Clear
2:35 AM 76.5 °F - 48.2 °F 37% 29.98 in 10.0 mi South 10.4 mph - N/A   Clear
2:55 AM 77.7 °F - 50.0 °F 38% 29.98 in 10.0 mi South 11.5 mph - N/A   Clear
3:15 AM 78.4 °F - 52.0 °F 40% 29.97 in 10.0 mi South 10.4 mph - N/A   Clear
3:35 AM 76.8 °F - 52.5 °F 43% 29.97 in 10.0 mi South 8.1 mph - N/A   Clear
3:55 AM 75.6 °F - 52.9 °F 45% 29.97 in 10.0 mi South 6.9 mph - N/A   Clear
4:15 AM 75.4 °F - 53.6 °F 47% 29.96 in 10.0 mi South 9.2 mph - N/A   Clear
4:35 AM 73.8 °F - 53.6 °F 49% 29.96 in 10.0 mi South 6.9 mph - N/A   Clear
4:55 AM 72.7 °F - 53.1 °F 50% 29.96 in 10.0 mi South 5.8 mph - N/A   Clear
5:15 AM 72.1 °F - 52.2 °F 49% 29.95 in 10.0 mi South 6.9 mph - N/A   Clear
5:35 AM 71.4 °F - 50.9 °F 48% 29.94 in 10.0 mi SSW 5.8 mph - N/A   Clear
5:55 AM 71.8 °F - 49.3 °F 45% 29.94 in 10.0 mi SW 8.1 mph - N/A   Clear
6:15 AM 74.3 °F - 48.4 °F 40% 29.94 in 10.0 mi WSW 10.4 mph - N/A   Clear
6:35 AM 73.6 °F - 48.2 °F 41% 29.94 in 10.0 mi West 10.4 mph - N/A   Clear
6:55 AM 71.8 °F - 49.5 °F 45% 29.93 in 10.0 mi West 10.4 mph - N/A   Clear
7:15 AM 73.0 °F - 49.1 °F 43% 29.93 in 10.0 mi West 11.5 mph - N/A   Clear
7:35 AM 75.2 °F - 49.1 °F 40% 29.94 in 10.0 mi West 12.7 mph - N/A   Clear
7:55 AM 76.5 °F - 49.1 °F 38% 29.94 in 10.0 mi West 10.4 mph - N/A   Clear
8:15 AM 77.7 °F - 49.3 °F 37% 29.96 in 10.0 mi East 6.9 mph - N/A   Clear
8:35 AM 78.6 °F - 48.7 °F 35% 29.97 in 10.0 mi ENE 5.8 mph - N/A   Clear
8:55 AM 79.7 °F - 51.6 °F 38% 29.98 in 10.0 mi ESE 16.1 mph - N/A   Clear
9:15 AM 80.1 °F 80.8 °F 59.5 °F 49% 29.98 in 10.0 mi ESE 24.2 mph 28.8 mph N/A   Clear
9:35 AM 78.8 °F - 60.1 °F 53% 29.98 in 10.0 mi SE 26.5 mph 31.1 mph N/A   Clear
9:55 AM 78.4 °F - 59.0 °F 51% 29.99 in 10.0 mi SE 26.5 mph 32.2 mph 0.03 in   Clear
10:15 AM 77.9 °F - 57.7 °F 50% 30.00 in 10.0 mi SSE 26.5 mph 36.8 mph N/A   Clear
10:35 AM 77.5 °F - 55.8 °F 47% 30.00 in 10.0 mi SSE 31.1 mph 35.7 mph N/A   Clear
10:55 AM 77.2 °F - 55.6 °F 47% 30.01 in 10.0 mi SSE 27.6 mph 35.7 mph N/A   Clear
11:15 AM 77.5 °F - 55.2 °F 46% 30.02 in 10.0 mi SSE 27.6 mph - N/A   Clear
11:35 AM 78.3 °F - 54.5 °F 44% 30.01 in 10.0 mi SSE 26.5 mph 34.5 mph N/A   Clear
11:55 AM 79.7 °F - 55.0 °F 43% 30.02 in 10.0 mi SSE 27.6 mph 35.7 mph N/A   Clear
12:15 PM 82.8 °F 82.1 °F 55.9 °F 40% 30.02 in 10.0 mi South 28.8 mph 32.2 mph N/A   Clear
12:35 PM 85.1 °F 83.9 °F 56.1 °F 37% 30.01 in 10.0 mi SSE 24.2 mph 33.4 mph N/A   Clear
12:55 PM 83.3 °F 82.6 °F 56.3 °F 40% 30.02 in 10.0 mi SSE 24.2 mph 40.3 mph N/A   Clear
1:15 PM 81.1 °F 81.0 °F 56.3 °F 42% 30.03 in 10.0 mi SE 24.2 mph 29.9 mph N/A   Clear
1:35 PM 81.0 °F 80.9 °F 56.7 °F 43% 30.03 in 10.0 mi SSE 24.2 mph 29.9 mph N/A   Clear
1:55 PM 81.5 °F 81.5 °F 57.4 °F 44% 30.03 in 10.0 mi SSE 21.9 mph 31.1 mph N/A   Clear
2:15 PM 83.7 °F 83.0 °F 56.7 °F 40% 30.03 in 10.0 mi South 23.0 mph 28.8 mph N/A   Scattered Clouds
2:35 PM 82.6 °F 82.1 °F 56.8 °F 41% 30.04 in 10.0 mi SSE 20.7 mph 29.9 mph N/A   Scattered Clouds
2:55 PM 81.3 °F 81.2 °F 56.7 °F 43% 30.03 in 10.0 mi SSE 23.0 mph 28.8 mph N/A   Scattered Clouds
3:15 PM 80.8 °F 80.8 °F 56.7 °F 43% 30.03 in 10.0 mi SSE 21.9 mph 29.9 mph N/A   Mostly Cloudy
3:35 PM 79.3 °F - 55.6 °F 44% 30.03 in 10.0 mi SSE 20.7 mph 27.6 mph N/A   Mostly Cloudy
3:55 PM 79.0 °F - 55.8 °F 45% 30.03 in 10.0 mi SE 23.0 mph 31.1 mph N/A   Mostly Cloudy
4:15 PM 76.8 °F - 55.4 °F 47% 30.02 in 10.0 mi SE 24.2 mph 29.9 mph N/A   Overcast
4:35 PM 74.1 °F - 58.3 °F 58% 30.02 in 10.0 mi SSE 24.2 mph 32.2 mph N/A   Overcast
4:55 PM 75.7 °F - 57.7 °F 53% 30.02 in 10.0 mi SSE 24.2 mph 27.6 mph N/A   Mostly Cloudy
5:15 PM 74.7 °F - 57.2 °F 54% 30.03 in 10.0 mi SSE 18.4 mph 24.2 mph N/A   Overcast
5:35 PM 74.3 °F - 56.3 °F 53% 30.03 in 10.0 mi SE 25.3 mph 29.9 mph N/A   Overcast
5:55 PM 72.5 °F - 57.2 °F 59% 30.03 in 10.0 mi SE 25.3 mph 29.9 mph N/A   Overcast
6:15 PM 72.0 °F - 57.6 °F 60% 30.04 in 10.0 mi SE 20.7 mph 28.8 mph N/A   Overcast
6:35 PM 70.0 °F - 58.8 °F 68% 30.05 in 10.0 mi SE 21.9 mph 29.9 mph N/A   Mostly Cloudy
6:55 PM 68.5 °F - 59.5 °F 73% 30.06 in 10.0 mi SE 18.4 mph 26.5 mph N/A   Mostly Cloudy
7:15 PM 66.2 °F - 61.7 °F 85% 30.08 in 10.0 mi SE 17.3 mph 23.0 mph N/A   Overcast
7:35 PM 65.3 °F - 62.1 °F 89% 30.08 in 7.0 mi SE 17.3 mph - N/A   Overcast
7:55 PM 64.4 °F - 61.9 °F 92% 30.09 in 4.0 mi SE 15.0 mph - N/A   Overcast
8:15 PM 64.4 °F - 62.1 °F 92% 30.09 in 10.0 mi SE 12.7 mph - N/A   Overcast
8:35 PM 64.4 °F - 62.4 °F 93% 30.10 in 10.0 mi SSE 10.4 mph - N/A   Overcast
8:55 PM 64.0 °F - 61.9 °F 93% 30.11 in 10.0 mi South 6.9 mph - N/A   Overcast
9:15 PM 64.0 °F - 61.7 °F 92% 30.11 in 10.0 mi South 5.8 mph - N/A   Overcast
9:35 PM 64.0 °F - 61.7 °F 92% 30.11 in 10.0 mi Calm Calm - N/A   Overcast
9:55 PM 63.9 °F - 61.7 °F 93% 30.12 in 10.0 mi SW 5.8 mph - N/A   Overcast
10:15 PM 63.5 °F - 61.3 °F 93% 30.12 in 10.0 mi South 4.6 mph - N/A   Overcast
10:35 PM 63.5 °F - 61.3 °F 93% 30.14 in 10.0 mi South 5.8 mph - N/A   Overcast
10:55 PM 63.1 °F - 60.8 °F 92% 30.15 in 10.0 mi South 3.5 mph - N/A   Overcast
11:15 PM 63.1 °F - 60.4 °F 91% 30.16 in 10.0 mi SSE 4.6 mph - N/A   Mostly Cloudy
11:35 PM 62.6 °F - 60.1 °F 91% 30.16 in 10.0 mi Calm Calm - N/A   Mostly Cloudy
11:55 PM 62.2 °F - 60.1 °F 93% 30.16 in 10.0 mi Calm Calm - N/A   Scattered Clouds